Weather Roundup
Issued by NWS Chicago, IL

Home | Current Version | Previous Version | Graphics & Text | Print | Product List | Glossary On
Versions: 1 2 3 4 5 6 7 8 9 10 11 12 13 14 15 16 17 18 19 20 21 22 23 24 25 26 27 28 29 30 31 32 33 34 35 36 37 38 39 40 41 42 43 44 45 46 47 48 49 50
000
NZUS59 KLOT 252300
HRRLOT

CHICAGO AREA WEATHER ROUNDUP
NATIONAL WEATHER SERVICE CHICAGO/ROMEOVILLE IL
500 PM CST TUE NOV 25 2014

NOTE: "FAIR" INDICATES FEW OR NO CLOUDS BELOW 12,000 FEET WITH NO
SIGNIFICANT WEATHER AND/OR OBSTRUCTIONS TO VISIBILITY.

* THESE STATIONS ARE NOT UNDER NWS QUALITY CONTROL. THEY ALSO MAY NOT
  REPORT WEATHER SUCH AS PRECIPITATION OR FOG.

ILZ005-006-012>014-019>023-260000-
NORTHEAST ILLINOIS

CITY           SKY/WX    TMP DP  RH WIND       PRES   REMARKS
OHARE          PTCLDY    22  16  78 W9        30.14R WCI  12
MIDWAY         PTCLDY    24  17  74 SW9       30.16R WCI  14
AURORA         PTCLDY    20  14  77 W6        30.16R WCI  12
WAUKEGAN       MOCLDY    21  15  78 W7        30.13R WCI  12
DUPAGE AIRPORT MOCLDY    20  14  77 W8        30.14S WCI  10
WHEELING       CLEAR     23  15  71 W7        30.16R WCI  15
NORTHERLY IS     N/A     25  17  72 SW7         N/A  WCI  17
$$

WIZ051-052-058>065-066-070>072-260000-
SOUTHEAST WISCONSIN

CITY           SKY/WX    TMP DP  RH WIND       PRES   REMARKS
MILWAUKEE      CLOUDY    23  16  74 SW10      30.13R WCI  12
KENOSHA*       CLOUDY    23  17  78 SW10      30.13S WCI  12
RACINE*        CLOUDY    24  17  74 W5        30.15R WCI  18
WAUKESHA       CLOUDY    19  16  86 SW9       30.13R WCI   9
$$

INZ001>003-010>013-019-020-260000-
NORTHWEST INDIANA

CITY           SKY/WX    TMP DP  RH WIND       PRES   REMARKS
GARY*          NOT AVBL
MICHIGAN CITY* NOT AVBL
RENSSELAER*    NOT AVBL
$$

LMZ740>746-260000-
SOUTHERN LAKE MICHIGAN

STATION/POSITION TIME  SKY/WX   TEMP WIND        PRES    VSBY
                                AIR  DIR/SP/G
                 (UTC)          (F)  (DEG/KT/KT) (MB)    (MI)
HARRISON CRIB    2200            25  240/ 12/ 14   N/A
BURNHAM HARBOR   2300            25  260/  4/ 14   N/A
CALUMET HARBOR   2200            24  230/  7/ 11 1019.9R
BURNS HARBOR     NOT AVBL
MICHIGAN CITY    2200            26  190/  9/ 12   N/A
$$

ABBREVIATIONS USED IN REMARKS
   TC - TEMPERATURE IN CELSIUS
  WCI - WIND CHILL INDEX
   HX - HEAT INDEX
  VSB - VISIBILITY
$$


USA.gov is the U.S. government's official web portal to all federal, state and local government web resources and services.